| time (UTC) | temp F | wind direction | speed knots | gust knots | rain 1hr in | rain 24hr in | rain mn in | humidity % | barometer mb |
| 20260510175306 | 77 | 323 | 2.6 | 3.5 | 0.00 | 0.00 | 0.00 | 52 | 982.6 |
| 20260510174402 | 79 | 331 | 1.7 | 3.5 | 0.00 | 0.00 | 0.00 | 52 | 982.9 |
| 20260510172602 | 79 | 105 | 1.7 | 3.5 | 0.00 | 0.00 | 0.00 | 55 | 982.8 |
| 20260510171702 | 79 | 151 | 2.6 | 5.2 | 0.00 | 0.00 | 0.00 | 51 | 982.9 |
| 20260510170803 | 81 | 127 | 1.7 | 5.2 | 0.00 | 0.00 | 0.00 | 51 | 982.9 |
| 20260510165903 | 81 | 67 | 2.6 | 3.5 | 0.00 | 0.00 | 0.00 | 51 | 983.1 |
| 20260510165002 | 80 | 95 | 1.7 | 3.5 | 0.00 | 0.00 | 0.00 | 50 | 982.9 |
| 20260510163203 | 79 | 30 | 0.9 | 2.6 | 0.00 | 0.00 | 0.00 | 60 | 983.0 |
| 20260510162305 | 79 | 11 | 0.9 | 2.6 | 0.00 | 0.00 | 0.00 | 59 | 982.9 |
| 20260510160502 | 79 | 102 | 2.6 | 5.2 | 0.00 | 0.00 | 0.00 | 67 | 983.0 |
| 20260510155602 | 77 | 124 | 0.9 | 6.1 | 0.00 | 0.00 | 0.00 | 68 | 983.0 |
| 20260510154702 | 77 | 134 | 3.5 | 6.1 | 0.00 | 0.00 | 0.00 | 70 | 983.0 |
| 20260510153802 | 77 | 130 | 2.6 | 5.2 | 0.00 | 0.00 | 0.00 | 71 | 983.0 |
| 20260510152902 | 77 | 131 | 2.6 | 4.3 | 0.00 | 0.00 | 0.00 | 72 | 982.9 |
| 20260510152002 | 77 | 148 | 3.5 | 4.3 | 0.00 | 0.00 | 0.00 | 73 | 983.0 |
| 20260510151102 | 77 | 166 | 2.6 | 4.3 | 0.00 | 0.00 | 0.00 | 75 | 982.9 |
| 20260510150202 | 75 | 146 | 1.7 | 4.3 | 0.00 | 0.00 | 0.00 | 77 | 983.0 |
| 20260510145305 | 74 | 148 | 2.6 | 4.3 | 0.00 | 0.00 | 0.00 | 79 | 982.8 |
| 20260510144402 | 73 | 126 | 1.7 | 6.1 | 0.00 | 0.00 | 0.00 | 79 | 982.8 |
| 20260510141703 | 72 | 125 | 2.6 | 2.6 | 0.00 | 0.00 | 0.00 | 88 | 983.0 |
| 20260510140802 | 71 | 20 | 0.9 | 3.5 | 0.00 | 0.00 | 0.00 | 90 | 982.8 |
| 20260510133202 | 69 | 106 | 0.0 | 2.6 | 0.00 | 0.00 | 0.00 | 96 | 982.7 |
| 20260510132305 | 68 | 78 | 0.0 | 1.7 | 0.00 | 0.00 | 0.00 | 97 | 982.6 |
| 20260510131402 | 67 | 353 | 0.0 | 1.7 | 0.00 | 0.00 | 0.00 | 98 | 982.6 |
| 20260510130502 | 65 | 345 | 0.0 | 1.7 | 0.00 | 0.00 | 0.00 | 98 | 982.6 |
| 20260510125602 | 63 | 325 | 0.0 | 1.7 | 0.00 | 0.00 | 0.00 | 97 | 982.7 |
| 20260510124702 | 61 | 321 | 0.0 | 1.7 | 0.00 | 0.00 | 0.00 | 98 | 982.6 |
| 20260510123802 | 60 | 0 | 0.0 | 0.0 | 0.00 | 0.00 | 0.00 | 99 | 982.6 |
| 20260510122902 | 58 | 314 | 0.0 | 0.9 | 0.00 | 0.00 | 0.00 | 99 | 982.6 |
| 20260510121101 | 56 | 1 | 0.0 | 0.9 | 0.00 | 0.00 | 0.00 | 99 | 982.4 |
| 20260510115305 | 55 | 60 | 0.0 | 3.5 | 0.00 | 0.00 | 0.00 | 99 | 982.0 |
| 20260510114402 | 55 | 322 | 0.9 | 1.7 | 0.00 | 0.00 | 0.00 | 97 | 981.7 |
| 20260510113503 | 55 | 314 | 0.0 | 1.7 | 0.00 | 0.00 | 0.00 | 97 | 981.5 |
| 20260510112602 | 55 | 338 | 0.0 | 1.7 | 0.00 | 0.00 | 0.00 | 97 | 981.5 |
| 20260510105903 | 55 | 330 | 0.0 | 1.7 | 0.00 | 0.00 | 0.00 | 97 | 981.1 |
| 20260510105003 | 55 | 0 | 0.0 | 0.0 | 0.00 | 0.00 | 0.00 | 97 | 981.2 |
| 20260510104102 | 55 | 353 | 0.0 | 1.7 | 0.00 | 0.00 | 0.00 | 97 | 981.0 |
| 20260510102305 | 55 | 188 | 0.0 | 1.7 | 0.00 | 0.00 | 0.00 | 97 | 980.5 |
| 20260510101402 | 56 | 0 | 0.0 | 0.0 | 0.00 | 0.00 | 0.00 | 98 | 980.5 |
| 20260510094702 | 56 | 0 | 0.0 | 0.0 | 0.00 | 0.00 | 0.00 | 98 | 980.5 |
| 20260510093802 | 56 | 0 | 0.0 | 0.0 | 0.00 | 0.00 | 0.00 | 98 | 980.3 |
| 20260510092002 | 57 | 354 | 0.0 | 1.7 | 0.00 | 0.00 | 0.00 | 98 | 980.5 |
| 20260510091102 | 57 | 1 | 0.9 | 1.7 | 0.00 | 0.00 | 0.00 | 98 | 980.3 |
| 20260510090202 | 58 | 0 | 0.0 | 0.0 | 0.00 | 0.00 | 0.00 | 98 | 980.3 |
| 20260510085302 | 58 | 0 | 0.0 | 0.0 | 0.00 | 0.00 | 0.00 | 98 | 980.4 |
| 20260510084402 | 58 | 0 | 0.0 | 0.0 | 0.00 | 0.00 | 0.00 | 97 | 980.3 |
| 20260510082602 | 58 | 0 | 0.0 | 0.0 | 0.00 | 0.00 | 0.00 | 97 | 980.3 |
| 20260510081702 | 59 | 0 | 0.0 | 0.0 | 0.00 | 0.00 | 0.00 | 96 | 980.0 |
| 20260510080803 | 59 | 0 | 0.0 | 0.0 | 0.00 | 0.00 | 0.00 | 96 | 979.9 |
| 20260510075903 | 59 | 0 | 0.0 | 0.0 | 0.00 | 0.00 | 0.00 | 96 | 979.9 |
| 20260510074102 | 60 | 114 | 0.0 | 1.7 | 0.00 | 0.00 | 0.00 | 96 | 979.8 |
| 20260510072305 | 61 | 45 | 0.0 | 0.9 | 0.00 | 0.00 | 0.00 | 95 | 979.7 |
| 20260510071401 | 61 | 191 | 0.0 | 1.7 | 0.00 | 0.00 | 0.00 | 95 | 979.7 |
| 20260510070501 | 61 | 122 | 0.0 | 1.7 | 0.00 | 0.00 | 0.00 | 95 | 979.8 |
| 20260510065602 | 61 | 1 | 0.0 | 0.9 | 0.00 | 0.00 | 0.00 | 94 | 979.8 |
| 20260510064701 | 61 | 82 | 0.0 | 1.7 | 0.00 | 0.00 | 0.00 | 95 | 979.8 |
| 20260510063801 | 61 | 301 | 0.0 | 1.7 | 0.00 | 0.00 | 0.00 | 94 | 979.5 |
| 20260510062901 | 62 | 22 | 0.0 | 0.9 | 0.00 | 0.00 | 0.00 | 94 | 979.7 |
| 20260510062001 | 62 | 0 | 0.0 | 0.0 | 0.00 | 0.00 | 0.00 | 93 | 979.6 |
| 20260510061102 | 62 | 45 | 0.0 | 0.9 | 0.00 | 0.00 | 0.00 | 94 | 979.7 |
| 20260510055306 | 63 | 51 | 0.0 | 1.7 | 0.00 | 0.00 | 0.00 | 92 | 979.8 |
| 20260510054401 | 63 | 43 | 0.9 | 2.6 | 0.00 | 0.00 | 0.00 | 92 | 979.9 |
| 20260510052601 | 63 | 54 | 0.9 | 1.7 | 0.00 | 0.00 | 0.00 | 92 | 979.8 |
| 20260510051701 | 64 | 35 | 0.0 | 1.7 | 0.00 | 0.00 | 0.00 | 91 | 979.9 |
| 20260510050801 | 64 | 47 | 0.0 | 1.7 | 0.00 | 0.00 | 0.00 | 91 | 979.9 |
| 20260510045901 | 64 | 49 | 0.9 | 2.6 | 0.00 | 0.00 | 0.00 | 91 | 979.8 |
| 20260510045003 | 64 | 76 | 0.0 | 2.6 | 0.00 | 0.00 | 0.00 | 91 | 980.0 |
| 20260510044101 | 64 | 50 | 0.0 | 2.6 | 0.00 | 0.00 | 0.00 | 91 | 980.0 |
| 20260510043201 | 64 | 47 | 0.9 | 2.6 | 0.00 | 0.00 | 0.00 | 91 | 979.8 |
| 20260510042305 | 64 | 38 | 0.9 | 1.7 | 0.00 | 0.00 | 0.00 | 91 | 979.9 |
| 20260510041401 | 63 | 10 | 0.0 | 1.7 | 0.00 | 0.00 | 0.00 | 91 | 979.9 |
| 20260510040502 | 62 | 282 | 0.0 | 1.7 | 0.00 | 0.00 | 0.00 | 91 | 980.1 |
| 20260510035601 | 61 | 28 | 0.0 | 1.7 | 0.00 | 0.00 | 0.00 | 91 | 979.9 |
| 20260510034701 | 60 | 2 | 0.0 | 1.7 | 0.00 | 0.00 | 0.00 | 91 | 979.9 |
| 20260510033803 | 60 | 14 | 0.0 | 1.7 | 0.00 | 0.00 | 0.00 | 91 | 979.9 |
| 20260510032901 | 60 | 45 | 0.0 | 0.9 | 0.00 | 0.00 | 0.00 | 91 | 979.8 |
| 20260510031101 | 60 | 27 | 0.0 | 1.7 | 0.00 | 0.00 | 0.00 | 90 | 980.1 |
| 20260510030201 | 60 | 45 | 0.0 | 1.7 | 0.00 | 0.00 | 0.00 | 90 | 979.9 |
| 20260510025301 | 60 | 46 | 0.9 | 1.7 | 0.00 | 0.00 | 0.00 | 88 | 979.6 |
| 20260510024401 | 61 | 45 | 0.0 | 0.9 | 0.00 | 0.00 | 0.00 | 87 | 979.6 |
| 20260510023503 | 61 | 11 | 0.0 | 0.9 | 0.00 | 0.00 | 0.00 | 86 | 979.4 |
| 20260510022601 | 62 | 1 | 0.0 | 0.9 | 0.00 | 0.00 | 0.00 | 85 | 979.3 |
| 20260510021701 | 62 | 0 | 0.0 | 0.0 | 0.00 | 0.00 | 0.00 | 83 | 979.2 |
| 20260510020801 | 62 | 56 | 0.0 | 0.9 | 0.00 | 0.00 | 0.00 | 83 | 979.0 |
| 20260510015901 | 63 | 74 | 0.0 | 0.9 | 0.00 | 0.00 | 0.00 | 80 | 979.0 |
| 20260510015002 | 63 | 1 | 0.0 | 0.9 | 0.00 | 0.00 | 0.00 | 79 | 978.7 |
| 20260510014101 | 64 | 1 | 0.0 | 0.9 | 0.00 | 0.00 | 0.00 | 78 | 978.5 |
| 20260510013201 | 64 | 1 | 0.0 | 1.7 | 0.00 | 0.00 | 0.00 | 77 | 978.4 |
| 20260510012301 | 65 | 0 | 0.0 | 0.0 | 0.00 | 0.00 | 0.00 | 76 | 978.4 |
| 20260510011401 | 66 | 0 | 0.0 | 0.0 | 0.00 | 0.00 | 0.00 | 75 | 978.0 |
| 20260510010503 | 67 | 0 | 0.0 | 0.0 | 0.00 | 0.00 | 0.00 | 72 | 978.0 |
| 20260510005601 | 68 | 1 | 0.0 | 1.7 | 0.00 | 0.00 | 0.00 | 72 | 977.9 |
| 20260510004702 | 69 | 1 | 0.9 | 1.7 | 0.00 | 0.00 | 0.00 | 69 | 977.8 |
| 20260510003803 | 71 | 0 | 0.0 | 0.0 | 0.00 | 0.00 | 0.00 | 64 | 977.6 |
| 20260510002001 | 73 | 1 | 0.0 | 1.7 | 0.00 | 0.00 | 0.00 | 59 | 977.6 |
| 20260510001101 | 75 | 11 | 0.0 | 0.9 | 0.00 | 0.00 | 0.00 | 60 | 977.5 |
| 20260510000203 | 76 | 29 | 0.0 | 0.9 | 0.00 | 0.00 | 0.00 | 61 | 977.4 |
| 20260509234402 | 76 | 75 | 0.0 | 1.7 | 0.00 | 0.00 | 0.00 | 54 | 977.4 |
| 20260509233502 | 75 | 61 | 0.9 | 1.7 | 0.00 | 0.00 | 0.00 | 58 | 977.4 |
| 20260509232601 | 75 | 45 | 0.0 | 1.7 | 0.00 | 0.00 | 0.00 | 59 | 977.5 |
| 20260509231701 | 75 | 81 | 0.9 | 1.7 | 0.00 | 0.00 | 0.00 | 54 | 977.6 |
| 20260509225901 | 77 | 137 | 0.9 | 3.5 | 0.00 | 0.00 | 0.00 | 51 | 977.6 |
| 20260509222306 | 77 | 141 | 0.9 | 3.5 | 0.00 | 0.00 | 0.00 | 50 | 976.9 |
| 20260509221401 | 77 | 141 | 2.6 | 3.5 | 0.00 | 0.00 | 0.00 | 50 | 977.1 |
| 20260509214701 | 79 | 141 | 3.5 | 4.3 | 0.00 | 0.00 | 0.00 | 50 | 976.8 |
| 20260509213801 | 79 | 118 | 3.5 | 5.2 | 0.00 | 0.00 | 0.00 | 51 | 977.0 |
| 20260509212901 | 79 | 166 | 3.5 | 4.3 | 0.00 | 0.00 | 0.00 | 49 | 976.9 |
| 20260509211101 | 79 | 82 | 0.9 | 4.3 | 0.00 | 0.00 | 0.00 | 48 | 977.0 |
| 20260509205301 | 79 | 150 | 3.5 | 6.1 | 0.00 | 0.00 | 0.00 | 45 | 977.1 |
| 20260509203501 | 77 | 138 | 2.6 | 3.5 | 0.00 | 0.00 | 0.00 | 54 | 977.2 |
| 20260509202601 | 79 | 114 | 2.6 | 3.5 | 0.00 | 0.00 | 0.00 | 52 | 977.3 |
| 20260509201702 | 77 | 36 | 0.9 | 3.5 | 0.00 | 0.00 | 0.00 | 53 | 977.4 |
| 20260509195902 | 79 | 81 | 1.7 | 3.5 | 0.00 | 0.00 | 0.00 | 50 | 977.5 |
| 20260509195001 | 79 | 70 | 2.6 | 4.3 | 0.00 | 0.00 | 0.00 | 53 | 977.4 |
| 20260509194101 | 77 | 83 | 2.6 | 6.1 | 0.00 | 0.00 | 0.00 | 54 | 977.3 |
| 20260509193201 | 77 | 43 | 1.7 | 5.2 | 0.00 | 0.00 | 0.00 | 55 | 977.4 |
| 20260509190501 | 77 | 71 | 1.7 | 5.2 | 0.00 | 0.00 | 0.00 | 56 | 977.8 |
| 20260509184701 | 77 | 159 | 2.6 | 7.0 | 0.00 | 0.00 | 0.00 | 58 | 978.1 |
| 20260509183801 | 77 | 69 | 4.3 | 7.0 | 0.00 | 0.00 | 0.00 | 57 | 977.9 |
| 20260509182902 | 77 | 57 | 3.5 | 4.3 | 0.00 | 0.00 | 0.00 | 60 | 978.0 |
| 20260509182001 | 74 | 97 | 2.6 | 4.3 | 0.00 | 0.00 | 0.00 | 64 | 978.0 |
| 20260509181101 | 74 | 326 | 3.5 | 4.3 | 0.00 | 0.00 | 0.00 | 62 | 978.2 |
| 20260509180201 | 74 | 41 | 1.7 | 9.6 | 0.00 | 0.00 | 0.00 | 62 | 978.0 |